Regional Weather Roundup
Issued by NWS

Home | Current Version | Previous Version | Text Only | Print | Product List | Glossary Off
Versions: 1 2 3 4 5 6 7 8 9 10 11 12 13 14 15 16 17 18 19 20 21 22 23 24 25 26 27 28 29 30 31 32 33 34 35 36 37 38 39 40 41 42 43 44 45 46 47 48 49 50

706
ASUS43 KLOT 191404
RWRIL

ILLINOIS REGIONAL WEATHER ROUNDUP
NATIONAL WEATHER SERVICE CHICAGO/ROMEOVILLE IL
900 AM CDT TUE SEP 19 2017

NOTE: "FAIR" INDICATES FEW OR NO CLOUDS BELOW 12,000 FEET WITH NO
SIGNIFICANT WEATHER AND/OR OBSTRUCTIONS TO VISIBILITY.

* THESE STATIONS ARE NOT UNDER NWS QUALITY CONTROL. THEY ALSO MAY NOT
  REPORT WEATHER SUCH AS PRECIPITATION OR FOG.

ILZ001-002-007-009-015-016-024-191500-
NORTHWEST ILLINOIS

CITY           SKY/WX    TMP DP  RH WIND       PRES   REMARKS
MOLINE         FOG       64  61  90 E5        29.95S VSB 1/2
STERLING*        N/A     63  62  97 E7        29.97S FOG
SAVANNA*       MOSUNNY   64  60  86 CALM      29.96S
$$

ILZ003-004-008-010-011-017-018-191500-
NORTH CENTRAL ILLINOIS

CITY           SKY/WX    TMP DP  RH WIND       PRES   REMARKS
ROCKFORD       MOSUNNY   67  61  81 NE6       29.99R
FREEPORT*      CLOUDY    62  61  99 E3        29.99S FOG
ROCHELLE*      CLOUDY    63  62  96 CALM      29.99R
DE KALB*       MOSUNNY   66  64  93 CALM      29.98S
PERU*          CLOUDY    63  61  93 NE3       29.97S FOG
$$

ILZ005-006-012>014-019>023-191500-
NORTHEAST ILLINOIS

CITY           SKY/WX    TMP DP  RH WIND       PRES   REMARKS
CHICAGO-OHARE  CLOUDY    69  64  84 NW3       29.96R
CHICAGO-MIDWAY CLOUDY    69  66  90 CALM      29.96R FOG
AURORA         CLOUDY    66  64  93 NE5       29.97R
LANSING*       CLOUDY    68  68 100 N3        29.96S FOG
JOLIET*        CLOUDY    69  67  95 CALM      29.97R FOG
WAUKEGAN       CLOUDY    67  67 100 CALM      29.96R FOG
DUPAGE AIRPORT PTSUNNY   67  65  93 NE6       29.96R
KANKAKEE*      PTSUNNY   67  66  97 NW5       29.97R
WHEELING       HVY RAIN  66  66 100 NE3       29.97R VSB 1
MORRIS*        MOSUNNY   67  65  91 CALM      29.96R FOG
ROMEOVILLE*    CLOUDY    65  65  99 CALM      29.97R FOG
NORTHERLY ISL    N/A     67  65  93 E7          N/A
$$

LMZ740>746-191500-
SOUTHERN LAKE MICHIGAN

STATION/POSITION SKY/WX   TEMP    WIND        PRES    VSBY  WAVE
                          AIR SEA DIR/SP/G                  HT/PER
                          (F)     (DEG/KT/KT) (MB)    (MI)  (FT/S)
SOUTHERN BUOY              67 68   80/ 12/ 14 1014.7          2/ 4
WILMETTE HARBOR            67 69  160/  2/  4   N/A           2/ 4
HARRISON CRIB              68     120/ 11/ 12   N/A
CALUMET HARBOR             67      70/  6/  8 1013.8
BURNS HARBOR               67     350/  2/  3 1014.9R
MICHIGAN CITY              67      80/  5/  5   N/A
MICHIGAN CITY 6N           68 68  120/  2/  4   N/A           1/ 4
ST. JOSEPH                 67 68  110/  4/  4 1014.3R         1
$$

ILZ025>027-034>036-040-047-049-050-058-095>099-191500-
WEST-CENTRAL ILLINOIS

CITY           SKY/WX    TMP DP  RH WIND       PRES   REMARKS
QUINCY         FOG       66  66 100 E5        29.95R VSB 1/2
GALESBURG*     FOG       65  65 100 CALM      29.97R VSB 1/4
MACOMB*        FOG       65  65 100 CALM      29.97S VSB 1/4
JACKSONVILLE*  CLOUDY    65  65 100 E3        29.97R FOG
PITTSFIELD*    FOG       64  64 100 CALM      29.97R VSB<1/4
$$

ILZ028>032-037-038-041>044-048-051>054-059>061-191500-
CENTRAL ILLINOIS

CITY           SKY/WX    TMP DP  RH WIND       PRES   REMARKS
PONTIAC        FOG       65  65  98 CALM      29.98R VSB 1/4
BLOOMINGTON    CLOUDY    68  67  96 NE3       29.97S
DECATUR        CLOUDY    68  68 100 W5        29.97R
PEORIA         CLOUDY    69  67  93 CALM      29.96R
LACON*         FOG       64  64 100 CALM      29.96R VSB 1/2
LINCOLN*       FOG       67  67 100 CALM      29.96R VSB 1/2
SPRINGFIELD    FOG       68  68 100 W3        29.96S VSB 1/2
TAYLORVILLE    FOG       67  67 100 CALM      29.97S VSB 1/4
$$

ILZ033-039-045-046-055>057-062-063-191500-
EAST-CENTRAL ILLINOIS

CITY           SKY/WX    TMP DP  RH WIND       PRES   REMARKS
CHAMPAIGN      CLOUDY    68  67  96 NW3       29.97R FOG
RANTOUL*       CLOUDY    69  69  98 CALM      29.96S
MATTOON        PTSUNNY   68  68 100 SW5       29.96R FOG
PARIS*         CLOUDY    69  69 100 SW5       29.97R FOG
$$

ILZ079-100>102-191500-
SOUTHWEST ILLINOIS

CITY           SKY/WX    TMP DP  RH WIND       PRES   REMARKS
ALTON          CLOUDY    66  66 100 CALM      29.98R FOG
BELLEVILLE     SUNNY     72  66  83 S2        30.00R
CAHOKIA*       PTSUNNY   72  68  87 CALM      29.97R FOG
SPARTA*        FOG       68  68 100 CALM      29.98S VSB 1/4
$$

ILZ064>066-069>071-074>076-080>082-084>086-088>090-092>094-191500-
SOUTH-CENTRAL ILLINOIS

CITY           SKY/WX    TMP DP  RH WIND       PRES   REMARKS
CARBONDALE     SUNNY     72  71  97 CALM      29.97R
CAIRO*         CLOUDY    72  71  96 CALM      29.97R FOG
EFFINGHAM*     MOSUNNY   70  70 100 CALM      29.98S
MARION         MOSUNNY   72  70  94 E5        29.98R
CENTRALIA*     SUNNY     74  70  88 CALM      29.97R
SALEM*         MOSUNNY   73  69  88 CALM      29.97S
METROPOLIS*    CLOUDY    72  70  92 CALM      29.99R
$$

ILZ067-068-072-073-078-083-087-091-191500-
SOUTHEAST ILLINOIS

CITY           SKY/WX    TMP DP  RH WIND       PRES   REMARKS
LAWRENCEVILLE  CLOUDY    69  69 100 S9        29.98S FOG
FLORA*         CLOUDY    72  71  96 SE3       30.01R
FAIRFIELD*     CLOUDY    71  71 100 CALM      29.97R FOG
HARRISBURG*    CLOUDY    71  70  99 CALM      29.98S
ROBINSON*      CLOUDY    68  68 100 S6        29.99R
CARMI*         CLOUDY    70  70 100 SE3       29.98R FOG
$$

ABBREVIATIONS USED IN REMARKS
   TC - TEMPERATURE IN CELSIUS
  WCI - WIND CHILL INDEX
   HX - HEAT INDEX
  VSB - VISIBILITY
$$





USA.gov is the U.S. government's official web portal to all federal, state and local government web resources and services.